1509116400.64,8018,11.94,72712.3,-6.11,-7.35,-7.31,0,*63
1509116401.92,8019,11.94,72698.8,-6.11,-7.57,-7.57,0,*66
1509116403.16,8020,11.94,72698.0,-6.09,-7.27,-7.27,0,*65
1509116404.43,8021,11.94,72714.8,-6.11,-6.97,-6.97,0,*6D
1509116405.64,8022,11.94,72738.0,-6.09,-7.01,-6.89,0,*66
1509116406.84,8023,11.94,72752.5,-6.09,-6.85,-6.77,0,*6B
1509116408.07,8024,11.94,72728.5,-6.09,-7.05,-7.05,0,*61
1509116409.29,8025,11.94,72744.0,-6.09,-6.93,-6.89,0,*6B
1509116410.5,8026,11.94,72738.0,-6.09,-7.15,-7.05,0,*62
1509116411.77,8027,11.94,72744.5,-6.11,-7.61,-7.57,0,*6E
1509116413.01,8028,11.94,72718.8,-6.09,-7.65,-7.57,0,*6C
1509116414.29,8029,11.94,72724.3,-6.11,-7.61,-7.61,0,*65
1509116415.56,8030,11.94,72734.8,-6.11,-7.73,-7.69,0,*66
1509116416.8,8031,11.94,72728.8,-6.09,-7.27,-7.27,0,*65
1509116418.07,8032,11.94,72736.3,-6.11,-7.43,-7.31,0,*6A
1509116419.34,8033,11.94,72722.0,-6.11,-7.31,-7.31,0,*6E
1509116420.56,8034,11.94,72714.0,-6.11,-7.19,-7.11,0,*61
1509116421.81,8035,11.94,72714.3,-6.09,-6.93,-6.93,0,*61
1509116423.05,8036,11.94,72716.8,-6.09,-6.93,-6.93,0,*62
1509116424.24,8037,11.94,72716.5,-6.09,-6.89,-6.89,0,*63
1509116425.48,8038,11.94,72718.3,-6.09,-7.01,-7.01,0,*6C
1509116426.73,8039,11.94,72722.5,-6.09,-6.93,-6.93,0,*6D
1509116427.92,8040,11.94,72726.5,-6.09,-6.89,-6.85,0,*6F
1509116429.11,8041,11.94,72714.8,-6.09,-6.89,-6.89,0,*62
1509116430.38,8042,11.94,72700.0,-6.11,-6.93,-6.93,0,*68
1509116431.65,8043,11.94,72706.5,-6.07,-6.93,-6.93,0,*6E
1509116432.89,8044,11.94,72722.0,-6.09,-6.93,-6.93,0,*67
1509116434.11,8045,11.94,72716.5,-6.09,-7.05,-7.15,0,*67
1509116435.35,8046,11.94,72690.8,-6.09,-6.93,-6.93,0,*65
1509116436.6,8047,11.94,72702.8,-6.07,-7.01,-6.89,0,*6B
1509116437.84,8048,11.94,72710.3,-6.07,-6.93,-6.85,0,*62
1509116439.08,8049,11.94,72704.5,-6.07,-7.01,-6.89,0,*65
1509116440.35,8050,11.94,72716.3,-6.07,-7.05,-7.01,0,*68
1509116441.56,8051,11.94,72714.0,-6.07,-6.85,-6.73,0,*64
1509116442.78,8052,11.94,72720.0,-6.07,-6.89,-6.85,0,*62
1509116444.04,8053,11.94,72696.3,-6.07,-7.05,-7.05,0,*6F
1509116445.24,8054,11.94,72694.3,-6.05,-6.89,-6.81,0,*62
1509116446.46,8055,11.94,72694.5,-6.07,-6.85,-6.77,0,*64
1509116447.64,8056,11.94,72716.5,-6.05,-6.69,-6.73,0,*63
1509116448.86,8057,11.94,72708.5,-6.07,-6.89,-6.85,0,*67
1509116450.08,8058,11.94,72706.8,-6.07,-7.19,-7.15,0,*68
1509116451.35,8059,11.94,72700.8,-6.07,-7.05,-7.01,0,*61
1509116452.54,8060,11.94,72702.0,-6.05,-7.23,-7.23,0,*6D
1509116453.74,8061,11.94,72704.5,-6.05,-7.23,-7.11,0,*6D
1509116454.98,8062,11.94,72706.3,-6.07,-7.01,-6.89,0,*6C
1509116456.2,8063,11.94,72700.3,-6.07,-7.15,-7.15,0,*6C
1509116457.45,8064,11.94,72692.8,-6.05,-7.35,-7.35,0,*69
1509116458.66,8065,11.94,72706.5,-6.05,-7.53,-7.39,0,*64
1509116459.9,8066,11.94,72684.5,-6.07,-7.83,-7.77,0,*62
1509116461.13,8067,11.94,72678.5,-6.07,-7.83,-7.83,0,*68
1509116462.37,8068,11.94,72660.3,-6.09,-7.65,-7.65,0,*69
1509116463.61,8069,11.94,72656.8,-6.11,-7.49,-7.43,0,*6B
1509116464.82,8070,11.94,72676.8,-6.09,-7.15,-7.05,0,*61
1509116466.07,8071,11.94,72712.0,-6.09,-6.93,-6.93,0,*61
1509116467.34,8072,11.94,72688.5,-6.11,-7.05,-6.97,0,*61
1509116468.58,8073,11.94,72690.5,-6.09,-6.93,-6.93,0,*63
1509116469.77,8074,11.94,72692.8,-6.09,-6.89,-6.89,0,*64
1509116471.02,8075,11.94,72692.3,-6.07,-6.93,-6.89,0,*60
1509116472.26,8076,11.94,72700.5,-6.07,-6.93,-6.85,0,*6F
1509116473.48,8077,11.94,72710.8,-6.07,-6.85,-6.89,0,*65
1509116474.7,8078,11.94,72716.8,-6.07,-6.85,-6.85,0,*66
1509116475.92,8079,11.94,72692.0,-6.07,-6.77,-6.77,0,*67
1509116477.1,8080,11.94,72706.0,-6.05,-6.73,-6.69,0,*68
1509116478.28,8081,11.94,72722.3,-6.05,-6.69,-6.69,0,*62
1509116479.5,8082,11.94,72720.0,-6.07,-6.73,-6.73,0,*63
1509116480.69,8083,11.94,72720.8,-6.05,-6.73,-6.69,0,*6B
1509116481.88,8084,11.94,72730.0,-6.05,-6.59,-6.55,0,*6B
1509116483.09,8085,11.94,72724.0,-6.01,-6.69,-6.63,0,*68
1509116484.28,8086,11.94,72716.5,-6.01,-6.77,-6.77,0,*61
1509116485.47,8087,11.94,72720.3,-6.01,-6.81,-6.69,0,*66
1509116486.65,8088,11.94,72712.5,-6.01,-6.85,-6.77,0,*62
1509116487.87,8089,11.94,72714.8,-5.99,-6.77,-6.77,0,*6C
1509116489.07,8090,11.94,72722.0,-6.01,-6.81,-6.81,0,*66
1509116490.28,8091,11.94,72728.0,-5.99,-6.77,-6.69,0,*6A
1509116491.47,8092,11.94,72728.3,-6.01,-6.81,-6.85,0,*60
1509116492.68,8093,11.94,72720.0,-5.99,-6.81,-6.69,0,*61
1509116493.89,8094,11.94,72722.5,-6.01,-6.69,-6.63,0,*68
1509116495.1,8095,11.94,72722.5,-6.01,-6.69,-6.63,0,*69
1509116496.34,8096,11.94,72720.0,-5.99,-6.77,-6.63,0,*67
1509116497.55,8097,11.94,72714.0,-5.99,-6.77,-6.69,0,*6C
1509116498.76,8098,11.94,72718.0,-5.99,-6.77,-6.69,0,*63
1509116499.97,8099,11.94,72710.5,-5.99,-6.81,-6.77,0,*64
1509116501.19,8100,11.94,72702.8,-5.99,-6.81,-6.81,0,*6C
1509116502.41,8101,11.94,72716.8,-5.99,-6.81,-6.81,0,*6D
1509116503.63,8102,11.94,72712.8,-5.97,-6.81,-6.63,0,*6C
1509116504.82,8103,11.94,72720.3,-5.97,-6.89,-6.89,0,*61
1509116506.01,8104,11.94,72690.8,-5.97,-7.15,-7.15,0,*66
1509116507.25,8105,11.94,72702.0,-5.97,-7.43,-7.39,0,*6A
1509116508.48,8106,11.94,72704.8,-5.97,-7.39,-7.27,0,*6B
1509116509.71,8107,11.94,72698.3,-5.99,-7.31,-7.19,0,*61
1509116510.97,8108,11.94,72710.0,-5.99,-7.05,-6.97,0,*6E
1509116512.23,8109,11.94,72710.8,-5.99,-6.97,-7.05,0,*6F
1509116513.47,8110,11.94,72708.8,-5.99,-7.05,-7.11,0,*68
1509116514.73,8111,11.94,72700.0,-5.99,-6.97,-6.93,0,*68
1509116515.95,8112,11.94,72698.0,-5.99,-6.85,-6.85,0,*6F
1509116517.14,8113,11.94,72694.5,-6.01,-6.85,-6.81,0,*68
1509116518.36,8114,11.94,72698.8,-5.99,-6.85,-6.81,0,*6D
1509116519.57,8115,11.94,72688.8,-5.99,-6.51,-6.43,0,*6B
1509116520.78,8116,11.94,72694.8,-5.99,-6.69,-6.69,0,*6B
1509116521.96,8117,11.94,72700.8,-6.01,-6.69,-6.69,0,*68
1509116523.17,8118,11.94,72714.5,-5.99,-6.77,-6.69,0,*6A
1509116524.38,8119,11.94,72716.0,-5.99,-6.81,-6.77,0,*6D
1509116525.59,8120,11.94,72720.0,-5.97,-6.63,-6.59,0,*69
1509116526.78,8121,11.94,72724.3,-5.97,-6.73,-6.59,0,*69
1509116527.96,8122,11.94,72730.3,-5.97,-6.73,-6.73,0,*62
1509116529.16,8123,11.94,72734.5,-5.95,-6.89,-6.89,0,*61
1509116530.36,8124,11.94,72734.0,-5.95,-6.81,-6.89,0,*6E
1509116531.55,8125,11.94,72740.8,-5.97,-6.81,-6.73,0,*68
1509116532.75,8126,11.94,72746.5,-5.95,-6.89,-6.81,0,*6C
1509116533.98,8127,11.94,72740.0,-5.97,-7.01,-7.05,0,*63
1509116535.2,8128,11.94,72750.5,-5.95,-6.73,-6.63,0,*6B
1509116536.41,8129,11.94,72754.0,-5.97,-6.73,-6.63,0,*68
1509116537.64,8130,11.94,72750.5,-5.95,-6.93,-6.89,0,*68
1509116538.83,8131,11.94,72714.5,-5.97,-6.89,-6.81,0,*68
1509116540.03,8132,11.94,72718.8,-5.95,-7.19,-7.15,0,*6D
1509116541.22,8133,11.94,72706.8,-5.97,-6.81,-6.77,0,*6B
1509116542.41,8134,11.94,72730.8,-5.97,-6.81,-6.77,0,*6C
1509116543.6,8135,11.94,72732.8,-5.97,-6.77,-6.77,0,*64
1509116544.79,8136,11.94,72732.3,-5.97,-6.77,-6.73,0,*63
1509116545.98,8137,11.94,72748.5,-5.97,-7.15,-7.15,0,*66
1509116547.17,8138,11.94,72744.0,-5.97,-6.89,-6.89,0,*69
1509116548.39,8139,11.94,72726.3,-5.97,-7.19,-7.27,0,*65
1509116549.59,8140,11.94,72736.8,-5.97,-7.15,-7.05,0,*67
1509116550.78,8141,11.94,72730.0,-5.97,-6.81,-6.73,0,*6A
1509116551.97,8142,11.94,72736.8,-5.97,-6.77,-6.73,0,*60
1509116553.2,8143,11.94,72738.3,-5.95,-6.73,-6.63,0,*66
1509116554.39,8144,11.88,72732.0,-5.97,-6.59,-6.59,0,*62
1509116555.62,8145,11.94,72734.0,-5.97,-6.63,-6.63,0,*63
1509116556.81,8146,11.94,72734.0,-5.97,-6.73,-6.59,0,*68
1509116558.02,8147,11.94,72724.0,-5.97,-6.77,-6.63,0,*64
1509116559.24,8148,11.94,72720.8,-5.95,-6.73,-6.63,0,*6D
1509116560.48,8149,11.94,72708.3,-5.97,-6.63,-6.63,0,*6F
1509116561.7,8150,11.94,72710.8,-5.95,-6.73,-6.63,0,*64
1509116562.94,8151,11.94,72714.8,-5.95,-6.63,-6.63,0,*64
1509116564.16,8152,11.94,72708.0,-5.95,-6.77,-6.63,0,*62
1509116565.38,8153,11.94,72714.0,-5.93,-6.89,-6.89,0,*60
1509116566.59,8154,11.94,72714.3,-5.95,-6.81,-6.81,0,*61
1509116567.83,8155,11.94,72680.5,-5.95,-7.31,-7.27,0,*67
1509116569.08,8156,11.94,72672.3,-5.95,-7.01,-7.01,0,*63
1509116570.28,8157,11.94,72672.0,-5.95,-6.81,-6.73,0,*6F
1509116571.48,8158,11.94,72684.3,-5.95,-6.81,-6.77,0,*64
1509116572.72,8159,11.94,72704.3,-5.95,-7.05,-6.93,0,*62
1509116573.97,8160,11.94,72696.3,-5.95,-6.93,-6.93,0,*66
1509116575.16,8161,11.94,72714.3,-5.97,-7.15,-7.15,0,*65
1509116576.38,8162,11.94,72718.3,-5.97,-6.93,-6.81,0,*65
1509116577.63,8163,11.94,72722.3,-5.95,-7.01,-6.93,0,*6F
1509116578.83,8164,11.94,72712.3,-5.95,-6.81,-6.81,0,*62
1509116580.08,8165,11.94,72706.3,-5.95,-7.05,-7.01,0,*67
1509116581.28,8166,11.94,72708.5,-5.95,-7.15,-7.15,0,*60
1509116582.5,8167,11.94,72700.8,-5.95,-7.83,-7.73,0,*6E
1509116583.69,8168,11.94,72698.8,-5.97,-7.87,-7.83,0,*68
1509116584.93,8169,11.94,72688.5,-5.97,-7.99,-8.11,0,*62
1509116586.14,8170,11.94,72682.5,-5.99,-8.41,-8.37,0,*6A
1509116587.4,8171,11.94,72676.3,-5.99,-7.91,-7.77,0,*62
1509116588.66,8172,11.94,72676.8,-5.99,-7.31,-7.31,0,*69
1509116589.87,8173,11.94,72676.8,-6.01,-7.11,-7.05,0,*6F
1509116591.07,8174,11.94,72696.3,-6.01,-7.23,-7.11,0,*6C
1509116592.33,8175,11.94,72710.3,-5.99,-6.93,-6.97,0,*6A
1509116593.56,8176,11.94,72712.0,-6.01,-6.97,-7.05,0,*65
1509116594.79,8177,11.94,72692.0,-5.99,-7.11,-7.11,0,*6C
1509116596.0,8178,11.94,72684.3,-6.01,-7.19,-7.05,0,*6C
1509116597.19,8179,11.94,72674.8,-6.01,-7.19,-7.11,0,*68
1509116598.39,8180,11.94,72686.5,-6.01,-7.23,-7.11,0,*67
1509116599.62,8181,11.94,72702.0,-6.01,-7.05,-6.97,0,*6D
1509116600.84,8182,11.94,72730.8,-6.01,-6.93,-6.85,0,*63
1509116602.1,8183,11.94,72672.8,-5.99,-6.93,-6.93,0,*67
1509116603.34,8184,11.94,72660.5,-5.99,-7.05,-6.85,0,*69
1509116604.55,8185,11.94,72702.0,-5.99,-7.19,-7.19,0,*61
1509116605.77,8186,11.94,72702.0,-6.01,-6.93,-6.85,0,*67
1509116607.01,8187,11.94,72706.5,-6.01,-6.97,-6.97,0,*61
1509116608.26,8188,11.88,72706.5,-6.01,-7.57,-7.57,0,*6E
1509116609.5,8189,11.94,72634.8,-6.01,-7.73,-7.61,0,*6C
1509116610.71,8190,11.94,72636.5,-6.01,-7.11,-7.05,0,*62
1509116611.91,8191,11.94,72638.5,-6.01,-7.23,-7.23,0,*66
1509116613.14,8192,11.94,72668.0,-6.01,-7.05,-7.05,0,*65
1509116614.32,8193,11.94,72666.8,-6.01,-6.85,-6.85,0,*64
1509116615.56,8194,11.94,72686.5,-6.01,-6.97,-6.93,0,*67
1509116616.78,8195,11.94,72704.3,-6.01,-6.93,-6.85,0,*65
1509116618.02,8196,11.94,72706.3,-6.01,-6.93,-6.93,0,*61
1509116619.25,8197,11.94,72694.0,-6.01,-7.31,-7.31,0,*60
1509116620.5,8198,11.88,72688.8,-6.01,-7.43,-7.43,0,*6F
1509116621.72,8199,11.94,72676.5,-6.05,-7.27,-7.23,0,*6E
1509116622.91,8200,11.94,72688.5,-6.05,-7.15,-7.15,0,*69
1509116624.12,8201,11.94,72636.3,-6.01,-7.49,-7.43,0,*66
1509116625.36,8202,11.94,72656.8,-6.01,-7.43,-7.35,0,*6E
1509116626.58,8203,11.94,72658.8,-6.05,-7.53,-7.57,0,*6E
1509116627.82,8204,11.94,72654.3,-6.05,-7.35,-7.35,0,*6D
1509116629.02,8205,11.94,72656.8,-6.05,-7.11,-7.11,0,*6C
1509116630.24,8206,11.94,72668.8,-6.05,-6.97,-6.89,0,*60
1509116631.51,8207,11.94,72662.0,-6.07,-6.93,-6.93,0,*6C
1509116632.7,8208,11.94,72670.3,-6.05,-6.89,-6.89,0,*61
1509116633.89,8209,11.88,72668.0,-6.05,-6.89,-6.89,0,*60
1509116635.08,8210,11.94,72666.5,-6.05,-6.89,-6.89,0,*68
1509116636.27,8211,11.94,72664.8,-6.05,-6.89,-6.89,0,*69
1509116637.46,8212,11.94,72666.3,-6.01,-6.85,-6.85,0,*6E
1509116638.67,8213,11.94,72674.8,-6.01,-6.93,-6.85,0,*68
1509116639.86,8214,11.94,72670.8,-6.01,-6.85,-6.77,0,*65
1509116641.05,8215,11.94,72678.0,-6.01,-6.85,-6.81,0,*6D
1509116642.24,8216,11.94,72674.5,-6.01,-6.85,-6.77,0,*67
1509116643.43,8217,11.88,72678.5,-6.01,-6.85,-6.77,0,*66
1509116644.64,8218,11.94,72666.5,-5.99,-6.69,-6.77,0,*69
1509116645.85,8219,11.88,72662.5,-6.01,-6.77,-6.63,0,*60
1509116647.06,8220,11.94,72652.0,-5.99,-6.77,-6.69,0,*62
1509116648.25,8221,11.94,72660.8,-6.01,-6.81,-6.77,0,*67
1509116649.47,8222,11.94,72686.5,-5.99,-6.81,-6.81,0,*6F
1509116650.72,8223,11.94,72688.8,-5.99,-6.93,-6.81,0,*6D
1509116651.98,8224,11.94,72702.3,-5.99,-7.05,-6.93,0,*67
1509116653.17,8225,11.94,72716.8,-6.01,-6.85,-6.81,0,*6E
1509116654.41,8226,11.94,72704.0,-5.99,-6.77,-6.63,0,*6E
1509116655.62,8227,11.94,72710.8,-5.99,-6.85,-6.85,0,*6A
1509116656.82,8228,11.94,72722.8,-6.01,-6.81,-6.77,0,*6E
1509116658.03,8229,11.94,72720.5,-5.99,-6.81,-6.85,0,*60
1509116659.27,8230,11.94,72726.5,-6.01,-6.97,-6.97,0,*6E
1509116660.51,8231,11.94,72684.8,-5.99,-6.93,-6.85,0,*6A
1509116661.7,8232,11.94,72700.0,-6.01,-7.23,-7.19,0,*65
1509116662.94,8233,11.94,72694.8,-5.99,-7.49,-7.43,0,*65
1509116664.2,8234,11.94,72678.5,-5.99,-7.57,-7.57,0,*68
1509116665.4,8235,11.94,72672.8,-6.01,-7.23,-7.11,0,*6A
1509116666.59,8236,11.88,72676.0,-6.01,-6.85,-6.85,0,*68
1509116667.83,8237,11.94,72682.5,-6.01,-6.93,-6.93,0,*69
1509116669.04,8238,11.94,72686.0,-6.01,-7.11,-7.05,0,*63
1509116670.23,8239,11.88,72690.8,-6.01,-7.23,-7.23,0,*67
1509116671.47,8240,11.88,72686.3,-6.01,-7.43,-7.35,0,*68
1509116672.71,8241,11.88,72692.5,-6.01,-7.43,-7.43,0,*68
1509116673.97,8242,11.94,72694.8,-5.99,-7.69,-7.69,0,*69
1509116675.19,8243,11.88,72694.3,-6.01,-7.57,-7.49,0,*65
1509116676.43,8244,11.94,72696.5,-6.01,-7.57,-7.61,0,*68
1509116677.7,8245,11.94,72702.5,-6.07,-7.69,-7.65,0,*66
1509116678.97,8246,11.94,72702.8,-6.07,-7.65,-7.57,0,*68
1509116680.19,8247,11.88,72704.8,-6.05,-7.27,-7.15,0,*6B
1509116681.39,8248,11.94,72712.8,-6.05,-7.11,-7.11,0,*65
1509116682.58,8249,11.94,72714.8,-6.05,-7.15,-7.15,0,*64
1509116683.85,8250,11.94,72716.5,-6.07,-7.27,-7.27,0,*6E
1509116685.09,8251,11.94,72722.8,-6.05,-7.35,-7.27,0,*6E
1509116686.33,8252,11.88,72730.8,-6.05,-7.35,-7.27,0,*6D
1509116687.6,8253,11.94,72714.8,-6.07,-7.27,-7.27,0,*6D
1509116688.84,8254,11.88,72706.0,-6.07,-7.43,-7.53,0,*6B
1509116690.11,8255,11.88,72706.5,-6.07,-7.65,-7.57,0,*6A
1509116691.38,8256,11.88,72722.3,-6.07,-7.31,-7.27,0,*6F
1509116692.59,8257,11.88,72702.0,-6.07,-7.53,-7.53,0,*69
1509116693.78,8258,11.94,72702.8,-6.05,-7.53,-7.49,0,*6F
1509116695.04,8259,11.94,72708.5,-6.07,-7.05,-7.05,0,*67
1509116696.3,8260,11.94,72712.3,-6.07,-7.39,-7.27,0,*62
1509116697.52,8261,11.88,72700.3,-6.09,-7.53,-7.57,0,*66
1509116698.75,8262,11.88,72692.0,-6.09,-7.39,-7.39,0,*61
1509116700.0,8263,11.88,72684.0,-6.09,-7.57,-7.57,0,*60
1509116701.23,8264,11.94,72700.0,-6.11,-7.19,-7.11,0,*66
1509116702.47,8265,11.88,72678.5,-6.09,-7.65,-7.57,0,*67
1509116703.71,8266,11.88,72688.5,-6.09,-7.69,-7.69,0,*65
1509116704.95,8267,11.88,72674.5,-6.11,-8.03,-8.17,0,*68
1509116706.22,8268,11.94,72670.8,-6.11,-7.73,-7.61,0,*61
1509116707.47,8269,11.94,72698.5,-6.09,-7.65,-7.57,0,*6B
1509116708.72,8270,11.94,72686.8,-6.11,-7.57,-7.49,0,*64
1509116709.98,8271,11.94,72678.8,-6.11,-7.35,-7.35,0,*6A
1509116711.26,8272,11.88,72668.3,-6.11,-7.61,-7.57,0,*6C
1509116712.52,8273,11.88,72660.0,-6.11,-7.61,-7.69,0,*60
1509116713.77,8274,11.94,72668.3,-6.11,-7.57,-7.49,0,*60
1509116715.04,8275,11.94,72668.5,-6.11,-7.61,-7.57,0,*6B
1509116716.26,8276,11.88,72686.8,-6.13,-7.31,-7.23,0,*6C
1509116717.48,8277,11.88,72690.0,-6.13,-7.11,-7.05,0,*6B
1509116718.75,8278,11.88,72684.5,-6.11,-6.97,-6.93,0,*67
1509116719.97,8279,11.88,72686.8,-6.09,-7.15,-7.01,0,*6E
1509116721.23,8280,11.88,72688.8,-6.11,-7.31,-7.31,0,*64
1509116722.46,8281,11.94,72702.3,-6.11,-7.23,-7.23,0,*65
1509116723.7,8282,11.88,72690.5,-6.09,-7.43,-7.39,0,*62
1509116724.92,8283,11.94,72668.5,-6.11,-7.87,-7.87,0,*67
1509116726.13,8284,11.88,72674.3,-6.11,-7.49,-7.49,0,*60
1509116727.4,8285,11.88,72674.5,-6.11,-7.05,-6.97,0,*6B
1509116728.67,8286,11.88,72678.8,-6.11,-6.93,-6.93,0,*62
1509116729.92,8287,11.94,72680.3,-6.11,-6.93,-6.89,0,*68
1509116731.16,8288,11.94,72652.5,-6.09,-7.01,-6.93,0,*6F
1509116732.4,8289,11.88,72686.3,-6.09,-6.93,-6.93,0,*64
1509116733.64,8290,11.88,72688.3,-6.09,-7.05,-7.01,0,*68
1509116734.88,8291,11.88,72688.5,-6.09,-7.01,-6.93,0,*67
1509116736.12,8292,11.88,72680.5,-6.09,-7.39,-7.43,0,*63
1509116737.38,8293,11.94,72692.0,-6.11,-7.69,-7.69,0,*66
1509116738.66,8294,11.94,72692.5,-6.11,-7.61,-7.57,0,*64
1509116739.87,8295,11.88,72692.5,-6.11,-7.49,-7.49,0,*60
1509116741.15,8296,11.88,72690.3,-6.11,-7.57,-7.57,0,*63
1509116742.42,8297,11.88,72694.8,-6.11,-7.73,-7.73,0,*62
1509116743.7,8298,11.88,72702.5,-6.11,-7.73,-7.61,0,*6E
1509116744.95,8299,11.88,72690.3,-6.13,-7.73,-7.69,0,*65
1509116746.14,8300,11.88,72700.5,-6.13,-7.23,-7.11,0,*6E
1509116747.37,8301,11.88,72698.5,-6.13,-7.11,-6.97,0,*61
1509116748.59,8302,11.94,72694.0,-6.13,-7.05,-7.11,0,*68
1509116749.83,8303,11.88,72704.8,-6.13,-7.05,-6.97,0,*66
1509116751.03,8304,11.88,72694.8,-6.13,-7.19,-7.19,0,*6B
1509116752.28,8305,11.94,72698.0,-6.13,-7.43,-7.35,0,*6B
1509116753.53,8306,11.88,72696.8,-6.13,-7.57,-7.43,0,*6C
1509116754.78,8307,11.88,72680.8,-6.13,-7.43,-7.35,0,*69
1509116755.98,8308,11.94,72696.0,-6.13,-7.19,-7.23,0,*6E
1509116757.23,8309,11.88,72654.0,-6.13,-7.73,-7.69,0,*6D
1509116758.45,8310,11.88,72670.8,-6.13,-7.31,-7.23,0,*6D
1509116759.68,8311,11.88,72660.5,-6.13,-7.05,-7.05,0,*6F
1509116760.88,8312,11.94,72660.8,-6.13,-7.23,-7.11,0,*6D
1509116762.12,8313,11.94,72680.8,-6.13,-7.05,-7.05,0,*6D
1509116763.37,8314,11.88,72684.3,-6.13,-7.43,-7.43,0,*6A
1509116764.59,8315,11.88,72666.0,-6.13,-7.31,-7.23,0,*68
1509116765.81,8316,11.88,72666.0,-6.13,-7.31,-7.23,0,*6B
1509116767.05,8317,11.88,72654.3,-6.13,-7.05,-6.97,0,*63
1509116768.27,8318,11.88,72660.5,-6.13,-6.93,-6.89,0,*6D
1509116769.54,8319,11.88,72664.3,-6.11,-6.97,-6.93,0,*61
1509116770.79,8320,11.88,72646.3,-6.11,-6.93,-6.89,0,*64
1509116772.06,8321,11.88,72648.8,-6.11,-6.97,-6.93,0,*6A
1509116773.32,8322,11.88,72644.8,-6.11,-7.05,-6.97,0,*67
1509116774.52,8323,11.88,72630.8,-6.09,-7.19,-7.15,0,*69
1509116775.75,8324,11.94,72648.5,-6.11,-7.11,-7.11,0,*6B
1509116777.01,8325,11.88,72630.5,-6.11,-7.05,-7.05,0,*6A
1509116778.23,8326,11.88,72636.0,-6.09,-6.93,-6.89,0,*6B
1509116779.5,8327,11.88,72646.3,-6.11,-6.97,-6.97,0,*68
1509116780.77,8328,11.88,72658.0,-6.11,-6.97,-6.97,0,*67
1509116782.03,8329,11.88,72658.5,-6.11,-6.97,-7.05,0,*6C
1509116783.27,8330,11.88,72642.8,-6.09,-7.31,-7.31,0,*67
1509116784.5,8331,11.88,72646.0,-6.11,-7.19,-7.11,0,*67
1509116785.69,8332,11.88,72658.3,-6.09,-7.53,-7.53,0,*65
1509116786.9,8333,11.88,72662.8,-6.09,-7.83,-7.77,0,*6F
1509116788.15,8334,11.88,72660.5,-6.11,-7.49,-7.57,0,*65
1509116789.42,8335,11.88,72666.8,-6.11,-7.57,-7.57,0,*6B
1509116790.69,8336,11.88,72676.0,-6.11,-7.69,-7.61,0,*60
1509116791.91,8337,11.88,72690.3,-6.13,-7.91,-7.87,0,*6C
1509116793.15,8338,11.88,72696.0,-6.13,-7.99,-7.99,0,*64
1509116794.4,8339,11.88,72694.3,-6.13,-8.11,-8.11,0,*65
1509116795.65,8340,11.88,72686.3,-6.13,-7.43,-7.43,0,*6B
1509116796.89,8341,11.88,72676.0,-6.13,-6.97,-6.97,0,*6A
1509116798.13,8342,11.88,72690.8,-6.13,-7.05,-7.05,0,*69
1509116799.38,8343,11.88,72724.8,-6.13,-6.97,-6.97,0,*68
1509116800.63,8344,11.88,72684.5,-6.13,-7.57,-7.57,0,*6F
1509116801.88,8345,11.88,72694.3,-6.13,-7.73,-7.73,0,*6E
1509116803.07,8346,11.88,72698.8,-6.13,-7.87,-7.87,0,*6D
1509116804.31,8347,11.94,72652.8,-6.13,-8.03,-7.99,0,*60
1509116805.51,8348,11.88,72682.0,-6.13,-7.23,-7.23,0,*63
1509116806.73,8349,11.88,72680.5,-6.17,-7.11,-7.05,0,*63
1509116807.97,8350,11.88,72688.3,-6.13,-7.43,-7.35,0,*6B
1509116809.19,8351,11.88,72696.0,-6.13,-7.49,-7.57,0,*64
1509116810.43,8352,11.88,72696.3,-6.13,-7.69,-7.69,0,*68
1509116811.68,8353,11.94,72700.8,-6.13,-7.73,-7.61,0,*6A
1509116812.93,8354,11.88,72690.8,-6.13,-7.73,-7.57,0,*68
1509116814.2,8355,11.88,72686.5,-6.19,-7.91,-7.91,0,*65
1509116815.44,8356,11.88,72700.5,-6.17,-7.77,-7.77,0,*68
1509116816.64,8357,11.88,72692.0,-6.17,-7.83,-7.83,0,*69
1509116817.88,8358,11.88,72698.5,-6.17,-7.77,-7.77,0,*66
1509116819.09,8359,11.88,72692.5,-6.17,-7.87,-7.95,0,*64
1509116820.28,8360,11.88,72690.0,-6.17,-8.21,-8.17,0,*68
1509116821.5,8361,11.88,72692.0,-6.19,-8.21,-8.21,0,*62
1509116822.78,8362,11.88,72688.8,-6.19,-8.11,-8.07,0,*66
1509116823.97,8363,11.88,72694.5,-6.21,-8.21,-8.25,0,*6F
1509116825.18,8364,11.88,72682.0,-6.23,-8.29,-8.29,0,*6E
1509116826.4,8365,11.88,72672.0,-6.23,-8.25,-8.17,0,*6E
1509116827.64,8366,11.88,72662.5,-6.23,-7.87,-7.95,0,*6F
1509116828.88,8367,11.88,72654.8,-6.23,-7.87,-7.95,0,*6E
1509116830.14,8368,11.88,72638.0,-6.23,-7.95,-7.95,0,*62
1509116831.39,8369,11.88,72652.3,-6.23,-7.95,-7.87,0,*60
1509116832.63,8370,11.88,72666.3,-6.21,-7.65,-7.57,0,*68
1509116833.91,8371,11.88,72644.5,-6.23,-7.61,-7.61,0,*6A
1509116835.16,8372,11.88,72652.0,-6.29,-7.39,-7.35,0,*6F
1509116836.4,8373,11.94,72670.0,-6.23,-7.11,-7.05,0,*6D
1509116837.67,8374,11.88,72660.8,-6.23,-7.35,-7.31,0,*6B
1509116838.92,8375,11.88,72664.0,-6.21,-7.69,-7.65,0,*60
1509116840.14,8376,11.88,72660.5,-6.23,-7.83,-7.83,0,*6D
1509116841.38,8377,11.88,72658.8,-6.23,-7.49,-7.43,0,*66
1509116842.66,8378,11.88,72658.8,-6.23,-7.35,-7.43,0,*62
1509116843.87,8379,11.88,72674.0,-6.21,-7.53,-7.43,0,*61
1509116845.09,8380,11.88,72660.8,-6.21,-7.91,-7.83,0,*65
1509116846.35,8381,11.88,72660.3,-6.23,-7.95,-7.95,0,*65
1509116847.63,8382,11.88,72670.5,-6.23,-7.43,-7.31,0,*63
1509116848.85,8383,11.88,72694.8,-6.23,-7.11,-7.19,0,*6F
1509116850.12,8384,11.88,72688.5,-6.23,-7.35,-7.35,0,*60
1509116851.39,8385,11.88,72664.0,-6.23,-7.69,-7.61,0,*69
1509116852.6,8386,11.88,72650.5,-6.23,-7.49,-7.49,0,*62
1509116853.86,8387,11.88,72664.0,-6.25,-7.73,-7.73,0,*65
1509116855.1,8388,11.88,72670.5,-6.25,-7.61,-7.57,0,*6F
1509116856.38,8389,11.88,72682.0,-6.23,-7.73,-7.69,0,*66
1509116857.62,8390,11.88,72686.5,-6.23,-7.57,-7.49,0,*6A
1509116858.86,8391,11.88,72694.3,-6.23,-7.49,-7.35,0,*6F
1509116860.13,8392,11.88,72652.5,-6.23,-7.43,-7.35,0,*66
1509116861.41,8393,11.88,72644.3,-6.23,-7.61,-7.57,0,*63
1509116862.67,8394,11.88,72660.3,-6.23,-7.31,-7.31,0,*61
1509116863.92,8395,11.88,72658.0,-6.23,-7.23,-7.35,0,*67
1509116865.14,8396,11.88,72670.0,-6.23,-7.23,-7.19,0,*6A
1509116866.41,8397,11.88,72660.3,-6.23,-7.35,-7.43,0,*63
1509116867.64,8398,11.88,72672.3,-6.23,-7.19,-7.11,0,*65
1509116868.86,8399,11.88,72652.0,-6.23,-7.23,-7.19,0,*65
1509116870.07,8400,11.88,72664.8,-6.21,-7.15,-7.05,0,*68
1509116871.31,8401,11.88,72676.5,-6.21,-7.39,-7.43,0,*65
1509116872.56,8402,11.88,72670.5,-6.23,-7.43,-7.49,0,*63
1509116873.83,8403,11.88,72680.3,-6.23,-7.43,-7.35,0,*69
1509116875.1,8404,11.88,72672.0,-6.23,-7.43,-7.31,0,*6A
1509116876.34,8405,11.88,72668.5,-6.23,-7.57,-7.49,0,*61
1509116877.61,8406,11.88,72676.8,-6.23,-7.69,-7.61,0,*65
1509116878.89,8407,11.88,72686.0,-6.23,-7.73,-7.69,0,*67
1509116880.11,8408,11.88,72702.5,-6.25,-7.73,-7.83,0,*6A
1509116881.36,8409,11.88,72700.3,-6.25,-7.61,-7.61,0,*64
1509116882.61,8410,11.88,72676.0,-6.25,-7.43,-7.35,0,*6D
1509116883.88,8411,11.88,72658.8,-6.23,-7.35,-7.43,0,*6A
1509116885.16,8412,11.88,72686.0,-6.23,-7.57,-7.43,0,*6D
1509116886.41,8413,11.88,72682.0,-6.21,-7.65,-7.65,0,*6B
1509116887.65,8414,11.88,72686.8,-6.21,-7.69,-7.61,0,*64
1509116888.89,8415,11.88,72676.5,-6.23,-7.49,-7.57,0,*60
1509116890.14,8416,11.88,72674.0,-6.23,-7.49,-7.43,0,*66
1509116891.41,8417,11.88,72702.8,-6.23,-7.35,-7.31,0,*69
1509116892.65,8418,11.88,72696.3,-6.25,-7.35,-7.35,0,*64
1509116893.92,8419,11.88,72688.8,-6.23,-7.31,-7.31,0,*63
1509116895.13,8420,11.88,72696.5,-6.25,-7.49,-7.31,0,*60
1509116896.38,8421,11.88,72676.8,-6.25,-7.69,-7.73,0,*65
1509116897.6,8422,11.88,72700.5,-6.23,-7.83,-7.83,0,*6B
1509116898.84,8423,11.88,72636.8,-6.23,-7.87,-7.95,0,*69
1509116900.09,8424,11.88,72660.3,-6.25,-7.73,-7.69,0,*60
1509116901.33,8425,11.88,72638.8,-6.25,-7.31,-7.31,0,*6A
1509116902.58,8426,11.88,72664.8,-6.25,-7.35,-7.35,0,*69
1509116903.8,8427,11.88,72636.3,-6.25,-7.57,-7.49,0,*67
1509116904.99,8428,11.88,72658.5,-6.25,-7.49,-7.49,0,*67
1509116906.22,8429,11.88,72672.3,-6.25,-7.57,-7.49,0,*69
1509116907.45,8430,11.88,72676.8,-6.29,-7.53,-7.61,0,*63
1509116908.68,8431,11.88,72644.8,-6.25,-7.49,-7.43,0,*65
1509116909.93,8432,11.88,72656.5,-6.25,-7.57,-7.57,0,*6C
1509116911.18,8433,11.88,72664.0,-6.25,-7.57,-7.57,0,*6D
1509116912.42,8434,11.88,72670.0,-6.25,-7.69,-7.69,0,*6A
1509116913.69,8435,11.88,72670.8,-6.29,-7.73,-7.73,0,*67
1509116914.95,8436,11.88,72676.0,-6.29,-7.65,-7.73,0,*63
1509116916.22,8437,11.88,72692.0,-6.29,-7.73,-7.65,0,*62
1509116917.44,8438,11.88,72686.0,-6.25,-7.57,-7.49,0,*69